Location: Newark
(47.5500°N, 8.6167°E)
Time: 14:40:43
(UTC+00:00)

Envisat - Pass Details

Date: 24 January 2020
Orbit: 764 x 766 km, 98.1° (Epoch: 28 February)

Event Time Altitude Azimuth Distance (km) Brightness Sun altitude
Rises 05:08:07 0° 25° (NNE) 3,244 6.5 -19.0°
Reaches altitude 10° 05:10:54 10° 39° (NE) 2,312 5.9 -18.5°
Maximum altitude 05:14:55 23° 92° (E) 1,583 5.5 -17.9°
Drops below altitude 10° 05:18:55 10° 144° (SE) 2,297 6.1 -17.2°
Sets 05:21:39 0° 159° (SSE) 3,218 6.7 -16.7°
